User: anonymous   Login
Location: Bothell
(47.7630°N, 122.2040°W)
Time: 08:57:20
(UTC-07:00)
Language:

Oscar 16 - Orbit

View from above orbital plane
View from above orbital plane
View from above satellite
View from above satellite

Ground track
Ground track

The orbit data is extracted from the following two-line orbital elements,

1 20439U 90005D   15241.69781404  .00000059  00000-0  37851-4 0  9996
2 20439 098.5429 176.8243 0009933 308.0683 169.1210 14.32565315337266
Epoch (UTC): 29 August 2015 16:44:51
Eccentricity: 0.0009933
inclination: 98.5429°
perigee height: 776 km
apogee height: 790 km
right ascension of ascending node: 176.8243°
argument of perigee: 308.0683°
revolutions per day: 14.32565315
mean anomaly at epoch: 169.1210°
orbit number at epoch: 33726

The dashed part of the orbit path shows where the satellite is in the earth's shadow,  

DLR